Regional Weather Roundup
Issued by NWS

Home | Current Version | Previous Version | Graphics & Text | Print | Product List | Glossary On
Versions: 1 2 3 4 5 6 7 8 9 10 11 12 13 14 15 16 17 18 19 20 21 22 23 24 25 26 27 28 29 30 31 32 33 34 35 36 37 38 39 40 41 42 43 44 45 46 47 48 49 50
000
ASUS43 KMPX 232001
RWRMN
WEATHER ROUNDUP FOR MINNESOTA
NATIONAL WEATHER SERVICE TWIN CITIES/CHANHASSEN MN
300 PM CDT SAT JUL 23 2016


NOTE: "FAIR" INDICATES FEW OR NO CLOUDS BELOW 12,000 FEET WITH NO
SIGNIFICANT WEATHER AND/OR OBSTRUCTIONS TO VISIBILITY. N/A MEANS
CURRENT SKY AND/OR WEATHER CONDITIONS ARE NOT AVAILABLE.

MNZ060>063-068>070-232100-
   Twin Cities Metro

CITY           SKY/WX    TMP DP  RH WIND       PRES   REMARKS
TWIN CITIES    CLOUDY    75  68  78 SE15      29.85F
ST PAUL        CLOUDY    74  69  85 SE15      29.85F
CRYSTAL        CLOUDY    73  67  81 E10G20    29.86R
BLAINE         LGT RAIN  73  73 100 E13       29.88R
LAKEVILLE      CLOUDY    73  73 100 SE14      29.86S
EDEN PRAIRIE   CLOUDY    75  69  81 SE13      29.84F
LAKEVILLE      CLOUDY    73  73 100 SE14      29.86S
SOUTH ST PAUL  CLOUDY    71  70  96 SE7G16    29.86F
LAKE ELMO      FAIR      72  70  94 SE10      29.87F
$$
MNZ001>005-007-008-013>017-022>024-027-028-232100-
   Northwest Minnesota

CITY           SKY/WX    TMP DP  RH WIND       PRES   REMARKS
HALLOCK        CLOUDY    68  64  88 E20G25    29.69F
ROSEAU         TSTM      66  63  88 N6        29.84R VSB 1
WARROAD        TSTM      70  64  83 N10       29.83R
THIEF RVR FALL CLOUDY    68  65  90 E10       29.74F
CROOKSTON      LGT RAIN  66  66 100 E9G25     29.72F
FOSSTON        LGT RAIN  72  64  78 SE15G21   29.75F
DETROIT LAKES  CLOUDY    75  68  78 SE10      29.83F
MOORHEAD       CLOUDY    81  70  69 SE16G26   29.72F
PARK RAPIDS    LGT RAIN  73  70  90 S10       29.83F
MAHNOMEN       FAIR      75  69  83 SE15      29.75F
$$
MNZ006-009>011-018-025>026-232100-
   North Central Minnesota

CITY           SKY/WX    TMP DP  RH WIND       PRES   REMARKS
BAUDETTE       CLOUDY    76  64  66 SE10      29.81F
FLAG ISLAND    CLOUDY    72  63  73 NE7       29.83S
INTL FALLS     CLOUDY    78  64  61 SE13      29.85F
WASKISH        CLOUDY    79  68  69 SE9G17    29.80F
BIG FORK       CLOUDY    79  64  61 SE9       29.85F
LONGVILLE      CLOUDY    75  68  78 S14       29.85S
GRAND RAPIDS   CLOUDY    76  66  71 VRB7      29.87F
CRANE LAKE     CLOUDY    73  64  73 SE2       29.89F
ORR            CLOUDY    75  57  53 SE3G17    29.84F
COOK           PTSUNNY   75  61  60 E3        29.87F
WALKER         LGT RAIN  73  68  84 S9        29.85S
$$
MNZ012-019>021-037-232100-
   Northeast Minnesota

CITY           SKY/WX    TMP DP  RH WIND       PRES   REMARKS
DULUTH         CLOUDY    73  62  68 SE13      29.90F
ELY            CLOUDY    72  57  60 E7        29.91F
HIBBING        CLOUDY    74  62  66 SE12      29.85F
EVELETH        CLOUDY    73  59  61 E6        29.88F
DULUTH HARBOR  CLOUDY    66  63  88 E9        29.91R
TWO HARBORS    CLOUDY    73  63  68 E10       29.88F
SILVER BAY     CLOUDY    70  61  73 NE8       29.91F
GRAND MARAIS     N/A     62  55  77 E12       29.94F
G MARAIS ARPRT CLOUDY    68  55  64 NE8       30.00F
$$
MNZ029>031-032-039>041-046>048-054>057-064-232100-
   West Central Minnesota

CITY           SKY/WX    TMP DP  RH WIND       PRES   REMARKS
FERGUS FALLS   CLOUDY    77  68  73 S7        29.79F
WHEATON        DRIZZLE   79  73  83 SE8       29.79S
MORRIS         CLOUDY    82  73  74 SE13      29.78F
ALEXANDRIA     CLOUDY    75  68  78 SE16G28   29.83F
ELBOW LAKE     FAIR      79  70  74 SE7       29.81R
WADENA         LGT RAIN  73  70  88 E13       29.82F
GLENWOOD       CLOUDY    75  70  83 E16G22    29.83F
APPLETON       CLOUDY    81  72  74 E14       29.78F
BENSON         CLOUDY    79  70  73 SE14      29.79F
ORTONVILLE     CLOUDY    82  73  74 SE13      29.77F
MADISON        MOSUNNY   82  73  74 SE10      29.77F
WILLMAR        PTSUNNY   73  72  94 E17       29.84F
$$
MNZ033>034-036-042>043-049>051-058-059-232100-
   Central Minnesota

CITY           SKY/WX    TMP DP  RH WIND       PRES   REMARKS
ST CLOUD       LGT RAIN  70  70 100 SE8       29.87F
SAUK CENTRE    CLOUDY    72  70  92 E15       29.85F
PAYNESVILLE    CLOUDY    74  73  98 E10       29.85F
AITKIN         MIX PCPN  73  66  78 S7        29.84F
PINE RIVER     LGT RAIN  72  70  94 S7        29.89F
BRAINERD       LGT RAIN  70  69  97 SW6       29.86F
STAPLES        CLOUDY    72  66  83 SE8       29.84F
LONG PRAIRIE   PTSUNNY   72  68  88 E14G20    29.84F
LITTLE FALLS   LGT RAIN  68  66  94 SE6       29.88F
LITCHFIELD     CLOUDY    73  73 100 N10       29.89S
BUFFALO        CLOUDY    70  67  92 CALM      29.90R
MAPLE LAKE     TSTM      71  70  97 NE3G18    29.90F
HUTCHINSON     CLOUDY    77  73  89 NE5       29.87F
$$
MNZ037-044-045-052-053-232100-
   East Central Minnesota

CITY           SKY/WX    TMP DP  RH WIND       PRES   REMARKS
PRINCETON      RAIN      70  68  94 CALM      29.89F
MORA           RAIN      66  64  94 SE3       29.91F
CAMBRIDGE      RAIN      73  66  78 CALM      29.88F
RUSH CITY      CLOUDY    71  69  94 CALM      29.91R
MOOSE LAKE     LGT RAIN  73  68  83 CALM      29.89R
HINCKLEY       RAIN      72  70  94 S7        29.91R
CLOQUET        CLOUDY    68  59  73 E8        29.91R
MCGREGOR       CLOUDY    72  70  94 S8        29.88R
$$
MNZ071>073-080-081-089-090-097-098-232100-
   Southwest Minnesota

CITY           SKY/WX    TMP DP  RH WIND       PRES   REMARKS
MONTEVIDEO     CLOUDY    81  73  78 SE18      29.81F
GRANITE FALLS  PTSUNNY   82  76  80 E12G18    29.81F HX  90
CANBY          CLOUDY    84  77  81 SE12      29.78S HX  93
MARSHALL       CLOUDY    87  75  67 S8        29.78S HX  96
REDWOOD FALLS  PTSUNNY   83  75  77 E9        29.80F HX  90
OLIVIA         CLOUDY    73  70  88 E9G16     29.83S
PIPESTONE      MOSUNNY   88  73  62 SW9       29.80F HX  96
WINDOM         CLOUDY    84  73  70 SE9       29.82F HX  91
WORTHINGTON    MOSUNNY   86  77  74 MISG      29.81F HX  97
JACKSON        CLOUDY    86  73  66 S14       29.83S HX  93
TRACY          CLOUDY    88  78  72 S12       29.80R HX 101
SLAYTON        CLOUDY    85  73  67 S9        29.81F HX  92
$$
MNZ065>067-074>077-082>085-091>093-232100-
   South Central Minnesota

CITY           SKY/WX    TMP DP  RH WIND       PRES   REMARKS
MANKATO        CLOUDY    79  72  78 SE14G20   29.84R
NEW ULM        PTSUNNY   81  75  83 SE8       29.82F
ST JAMES       CLOUDY    77  70  78 SE10      29.83S
FAIRMONT       CLOUDY    82  73  74 SE16      29.81S
GLENCOE        CLOUDY    78  75  91 NW3       29.87R
FARIBAULT      CLOUDY    73  72  94 SE16G25   29.86R
OWATONNA       CLOUDY    75  70  83 SE15G26   29.84R
WASECA         CLOUDY    77  72  83 SE17G24   29.86F
ALBERT LEA     CLOUDY    73  72  94 SE14      29.85R
$$
MNZ078>079-086>088-094>096-232100-
   Southeast Minnesota

CITY           SKY/WX    TMP DP  RH WIND       PRES   REMARKS
ROCHESTER      LGT RAIN  71  70  96 SE18G25   29.89F
RED WING       CLOUDY    73  72  94 SE12G18   29.86F
STANTON        CLOUDY    73  68  83 SE15G24   29.84R
DODGE CENTER   CLOUDY   N/A N/A N/A SE20G26   29.87F
WINONA         CLOUDY    72  70  94 SE8       29.92F
AUSTIN         LGT RAIN  72  70  94 SE15G25   29.86F
PRESTON        LGT RAIN  69  67  94 E13       29.92F
$$
ABBREVIATIONS USED IN REMARKS
   TC - TEMPERATURES IN CELSIUS
  WCI - WIND CHILL INDEX
   HX - HEAT INDEX
  VSB - VISIBILITY
$$




USA.gov is the U.S. government's official web portal to all federal, state and local government web resources and services.